Location: Ar Ranvel
(48.3000°N, 4.8833°W)
Time: 02:51:48
(UTC+00:00)

Cosmos 2322 Rocket - Pass Details

Date: 29 October 2021
Orbit: 832 x 851 km, 71.0° (Epoch: 01 December)

Event Time Altitude Azimuth Distance (km) Brightness Sun altitude
Rises 18:31:25 0° 223° (SW) 3,367 6.1 -14.8°
Reaches altitude 10° 18:33:55 10° 228° (SW) 2,438 5.4 -15.3°
Maximum altitude 18:39:21 51° 304° (NW) 1,049 3.0 -16.2°
Drops below altitude 10° 18:44:50 10° 20° (NNE) 2,460 4.4 -17.1°
Enters shadow 18:47:14 - 26° (NNE) 3,346 5.1 -17.5°
